| time (UTC) | temp F | wind direction | speed knots | gust knots | rain 1hr in | rain 24hr in | rain mn in | humidity % | barometer mb |
| 20260504130601 | 58 | 236 | 3.5 | 8.7 | 0.00 | 0.00 | 0.00 | 56 | |
| 20260504130401 | 58 | 212 | 3.5 | 8.7 | 0.00 | 0.00 | 0.00 | 55 | |
| 20260504130201 | 58 | 238 | 4.3 | 11.3 | 0.00 | 0.00 | 0.00 | 55 | |
| 20260504120200 | 55 | 242 | 5.2 | 12.2 | 0.00 | 0.00 | 0.00 | 59 | |
| 20260504110600 | 52 | 229 | 1.7 | 7.0 | 0.00 | 0.00 | 0.00 | 64 | |
| 20260504110400 | 52 | 239 | 1.7 | 7.0 | 0.00 | 0.00 | 0.00 | 64 | |
| 20260504110159 | 52 | 240 | 1.7 | 6.1 | 0.00 | 0.00 | 0.00 | 64 | |
| 20260504100600 | 53 | 218 | 1.7 | 7.0 | 0.00 | 0.00 | 0.00 | 65 | |
| 20260504100400 | 53 | 216 | 2.6 | 7.0 | 0.00 | 0.00 | 0.00 | 65 | |
| 20260504082005 | 52 | 239 | 0.0 | 1.7 | 0.00 | 0.00 | 0.00 | 65 | |
| 20260504081801 | 52 | 239 | 0.0 | 1.7 | 0.00 | 0.00 | 0.00 | 65 | |
| 20260504081401 | 52 | 239 | 0.0 | 1.7 | 0.00 | 0.00 | 0.00 | 65 | |
| 20260504081005 | 52 | 239 | 0.0 | 1.7 | 0.00 | 0.00 | 0.00 | 65 | |
| 20260504080758 | 52 | 239 | 0.0 | 1.7 | 0.00 | 0.00 | 0.00 | 65 | |
| 20260504080601 | 52 | 238 | 0.0 | 1.7 | 0.00 | 0.00 | 0.00 | 66 | |
| 20260504080402 | 52 | 238 | 0.0 | 1.7 | 0.00 | 0.00 | 0.00 | 65 | |
| 20260504070359 | 51 | 233 | 0.0 | 2.6 | 0.00 | 0.00 | 0.00 | 66 | |
| 20260504070159 | 51 | 233 | 0.9 | 2.6 | 0.00 | 0.00 | 0.00 | 66 | |
| 20260504050559 | 48 | 231 | 0.0 | 0.0 | 0.00 | 0.00 | 0.00 | 68 | |
| 20260504050359 | 48 | 231 | 0.0 | 0.0 | 0.00 | 0.00 | 0.00 | 66 | |
| 20260504050159 | 48 | 231 | 0.0 | 0.0 | 0.00 | 0.00 | 0.00 | 67 | |
| 20260504050003 | 47 | 231 | 0.0 | 0.0 | 0.00 | 0.00 | 0.00 | 68 | |
| 20260504045801 | 47 | 230 | 0.0 | 0.0 | 0.00 | 0.00 | 0.00 | 68 | |
| 20260504045559 | 47 | 231 | 0.0 | 0.0 | 0.00 | 0.00 | 0.00 | 68 | |
| 20260504045359 | 47 | 231 | 0.0 | 0.0 | 0.00 | 0.00 | 0.00 | 68 | |
| 20260504045159 | 47 | 231 | 0.0 | 0.0 | 0.00 | 0.00 | 0.00 | 68 | |
| 20260504045003 | 47 | 231 | 0.0 | 0.0 | 0.00 | 0.00 | 0.00 | 67 | |
| 20260504044800 | 47 | 231 | 0.0 | 0.9 | 0.00 | 0.00 | 0.00 | 68 | |
| 20260504044559 | 47 | 231 | 0.0 | 0.9 | 0.00 | 0.00 | 0.00 | 69 | |
| 20260504044400 | 47 | 230 | 0.0 | 0.9 | 0.00 | 0.00 | 0.00 | 67 | |
| 20260504044200 | 47 | 230 | 0.0 | 0.9 | 0.00 | 0.00 | 0.00 | 67 | |
| 20260504043759 | 47 | 230 | 0.0 | 0.0 | 0.00 | 0.00 | 0.00 | 66 | |
| 20260504043602 | 47 | 230 | 0.0 | 0.0 | 0.00 | 0.00 | 0.00 | 66 | |
| 20260504043401 | 47 | 231 | 0.0 | 0.0 | 0.00 | 0.00 | 0.00 | 66 | |
| 20260504043200 | 47 | 231 | 0.0 | 0.0 | 0.00 | 0.00 | 0.00 | 66 | |
| 20260504043005 | 47 | 230 | 0.0 | 0.0 | 0.00 | 0.00 | 0.00 | 66 | |
| 20260504042400 | 47 | 230 | 0.0 | 1.7 | 0.00 | 0.00 | 0.00 | 67 | |
| 20260504042201 | 47 | 231 | 0.0 | 1.7 | 0.00 | 0.00 | 0.00 | 68 | |
| 20260504042005 | 47 | 230 | 0.0 | 1.7 | 0.00 | 0.00 | 0.00 | 70 | |
| 20260504041800 | 47 | 231 | 0.9 | 2.6 | 0.00 | 0.00 | 0.00 | 69 | |
| 20260504041159 | 47 | 231 | 0.9 | 2.6 | 0.00 | 0.00 | 0.00 | 69 | |
| 20260504040601 | 47 | 230 | 0.9 | 2.6 | 0.00 | 0.00 | 0.00 | 69 | |
| 20260504040400 | 47 | 230 | 0.9 | 2.6 | 0.00 | 0.00 | 0.00 | 69 | |
| 20260504040201 | 47 | 228 | 0.9 | 1.7 | 0.00 | 0.00 | 0.00 | 69 | |
| 20260504040008 | 47 | 228 | 0.9 | 1.7 | 0.00 | 0.00 | 0.00 | 69 | |
| 20260504035801 | 47 | 228 | 0.0 | 0.9 | 0.00 | 0.00 | 0.00 | 69 | |
| 20260504035600 | 47 | 228 | 0.0 | 0.9 | 0.00 | 0.00 | 0.00 | 69 | |
| 20260504035359 | 47 | 228 | 0.0 | 0.9 | 0.00 | 0.00 | 0.00 | 70 | |
| 20260504035200 | 47 | 228 | 0.0 | 0.9 | 0.00 | 0.00 | 0.00 | 70 | |
| 20260504035004 | 47 | 228 | 0.0 | 0.0 | 0.00 | 0.00 | 0.00 | 70 | |
| 20260504034759 | 47 | 228 | 0.0 | 0.0 | 0.00 | 0.00 | 0.00 | 70 | |
| 20260504034600 | 47 | 227 | 0.0 | 0.0 | 0.00 | 0.00 | 0.00 | 70 | |
| 20260504034201 | 47 | 228 | 0.0 | 0.9 | 0.00 | 0.00 | 0.00 | 70 | |
| 20260504034005 | 47 | 228 | 0.0 | 0.9 | 0.00 | 0.00 | 0.00 | 69 | |
| 20260504033759 | 47 | 228 | 0.0 | 0.9 | 0.00 | 0.00 | 0.00 | 69 | |
| 20260504033601 | 47 | 228 | 0.0 | 0.9 | 0.00 | 0.00 | 0.00 | 68 | |
| 20260504033159 | 47 | 228 | 0.0 | 0.9 | 0.00 | 0.00 | 0.00 | 68 | |
| 20260504033005 | 47 | 228 | 0.0 | 0.9 | 0.00 | 0.00 | 0.00 | 67 | |
| 20260504032759 | 48 | 228 | 0.0 | 0.9 | 0.00 | 0.00 | 0.00 | 68 | |
| 20260504032559 | 48 | 228 | 0.0 | 0.9 | 0.00 | 0.00 | 0.00 | 68 | |
| 20260504032202 | 48 | 228 | 0.0 | 0.0 | 0.00 | 0.00 | 0.00 | 68 | |
| 20260504032004 | 48 | 228 | 0.0 | 0.0 | 0.00 | 0.00 | 0.00 | 69 | |
| 20260504031600 | 48 | 228 | 0.0 | 0.0 | 0.00 | 0.00 | 0.00 | 69 | |
| 20260504031359 | 48 | 228 | 0.0 | 1.7 | 0.00 | 0.00 | 0.00 | 69 | |
| 20260504031200 | 48 | 228 | 0.0 | 1.7 | 0.00 | 0.00 | 0.00 | 69 | |
| 20260504031005 | 48 | 227 | 0.0 | 1.7 | 0.00 | 0.00 | 0.00 | 69 | |
| 20260504030800 | 48 | 228 | 0.0 | 1.7 | 0.00 | 0.00 | 0.00 | 69 | |
| 20260504030601 | 48 | 228 | 0.0 | 1.7 | 0.00 | 0.00 | 0.00 | 69 | |
| 20260504030359 | 48 | 228 | 0.0 | 1.7 | 0.00 | 0.00 | 0.00 | 69 | |
| 20260504030200 | 48 | 228 | 0.0 | 1.7 | 0.00 | 0.00 | 0.00 | 69 | |
| 20260504030006 | 49 | 228 | 0.0 | 1.7 | 0.00 | 0.00 | 0.00 | 69 | |
| 20260504025800 | 49 | 228 | 0.0 | 1.7 | 0.00 | 0.00 | 0.00 | 69 | |
| 20260504025600 | 49 | 228 | 0.0 | 0.0 | 0.00 | 0.00 | 0.00 | 69 | |
| 20260504025400 | 49 | 227 | 0.0 | 0.9 | 0.00 | 0.00 | 0.00 | 69 | |
| 20260504025201 | 49 | 228 | 0.0 | 0.9 | 0.00 | 0.00 | 0.00 | 69 | |
| 20260504024759 | 49 | 228 | 0.0 | 0.9 | 0.00 | 0.00 | 0.00 | 69 | |
| 20260504024600 | 49 | 228 | 0.0 | 0.9 | 0.00 | 0.00 | 0.00 | 69 | |
| 20260504024359 | 49 | 228 | 0.0 | 0.0 | 0.00 | 0.00 | 0.00 | 69 | |
| 20260504024200 | 49 | 228 | 0.0 | 0.0 | 0.00 | 0.00 | 0.00 | 70 | |
| 20260504024005 | 49 | 228 | 0.0 | 0.0 | 0.00 | 0.00 | 0.00 | 70 | |
| 20260504023801 | 49 | 228 | 0.0 | 0.0 | 0.00 | 0.00 | 0.00 | 69 | |
| 20260504023559 | 49 | 228 | 0.0 | 0.0 | 0.00 | 0.00 | 0.00 | 69 | |
| 20260504023401 | 49 | 228 | 0.0 | 0.0 | 0.00 | 0.00 | 0.00 | 69 | |
| 20260504023005 | 50 | 228 | 0.0 | 1.7 | 0.00 | 0.00 | 0.00 | 68 | |
| 20260504022759 | 50 | 228 | 0.0 | 1.7 | 0.00 | 0.00 | 0.00 | 68 | |
| 20260504022559 | 50 | 228 | 0.0 | 1.7 | 0.00 | 0.00 | 0.00 | 67 | |
| 20260504022359 | 50 | 228 | 0.0 | 1.7 | 0.00 | 0.00 | 0.00 | 67 | |
| 20260504022005 | 50 | 228 | 0.0 | 0.0 | 0.00 | 0.00 | 0.00 | 66 | |
| 20260504021600 | 50 | 228 | 0.0 | 0.0 | 0.00 | 0.00 | 0.00 | 66 | |
| 20260504021401 | 50 | 228 | 0.0 | 0.0 | 0.00 | 0.00 | 0.00 | 66 | |
| 20260504021202 | 50 | 228 | 0.0 | 0.0 | 0.00 | 0.00 | 0.00 | 66 | |
| 20260504021006 | 50 | 227 | 0.0 | 0.0 | 0.00 | 0.00 | 0.00 | 65 | |
| 20260504020801 | 50 | 228 | 0.0 | 0.0 | 0.00 | 0.00 | 0.00 | 64 | |
| 20260504020600 | 50 | 228 | 0.0 | 0.0 | 0.00 | 0.00 | 0.00 | 64 | |
| 20260504020359 | 51 | 228 | 0.0 | 0.0 | 0.00 | 0.00 | 0.00 | 64 | |
| 20260504020201 | 51 | 228 | 0.0 | 0.0 | 0.00 | 0.00 | 0.00 | 63 | |
| 20260504020003 | 51 | 228 | 0.0 | 0.0 | 0.00 | 0.00 | 0.00 | 62 | |
| 20260504015600 | 51 | 228 | 0.0 | 0.0 | 0.00 | 0.00 | 0.00 | 62 | |
| 20260504015201 | 51 | 228 | 0.0 | 0.0 | 0.00 | 0.00 | 0.00 | 62 | |
| 20260504015004 | 51 | 228 | 0.0 | 0.0 | 0.00 | 0.00 | 0.00 | 62 | |
| 20260504014759 | 51 | 227 | 0.0 | 0.0 | 0.00 | 0.00 | 0.00 | 62 | |
| 20260504014600 | 51 | 227 | 0.0 | 0.0 | 0.00 | 0.00 | 0.00 | 62 | |
| 20260504014400 | 51 | 227 | 0.0 | 0.0 | 0.00 | 0.00 | 0.00 | 60 | |
| 20260504013800 | 52 | 228 | 0.0 | 0.0 | 0.00 | 0.00 | 0.00 | 58 | |
| 20260504013359 | 52 | 228 | 0.0 | 0.0 | 0.00 | 0.00 | 0.00 | 58 | |
| 20260504013200 | 52 | 228 | 0.0 | 0.0 | 0.00 | 0.00 | 0.00 | 57 | |
| 20260504013004 | 52 | 228 | 0.0 | 0.0 | 0.00 | 0.00 | 0.00 | 57 | |
| 20260504012600 | 53 | 227 | 0.0 | 0.0 | 0.00 | 0.00 | 0.00 | 55 | |
| 20260504012201 | 53 | 228 | 0.0 | 0.0 | 0.00 | 0.00 | 0.00 | 55 | |
| 20260504012005 | 53 | 228 | 0.0 | 0.0 | 0.00 | 0.00 | 0.00 | 55 | |
| 20260504011800 | 53 | 228 | 0.0 | 0.0 | 0.00 | 0.00 | 0.00 | 54 | |
| 20260504011600 | 53 | 227 | 0.0 | 0.0 | 0.00 | 0.00 | 0.00 | 54 | |
| 20260504011200 | 54 | 228 | 0.0 | 0.0 | 0.00 | 0.00 | 0.00 | 53 | |
| 20260504011004 | 54 | 228 | 0.0 | 0.0 | 0.00 | 0.00 | 0.00 | 53 | |
| 20260504010759 | 54 | 228 | 0.0 | 0.0 | 0.00 | 0.00 | 0.00 | 52 | |
| 20260504010600 | 54 | 228 | 0.0 | 0.0 | 0.00 | 0.00 | 0.00 | 52 | |
| 20260504010400 | 54 | 228 | 0.0 | 0.0 | 0.00 | 0.00 | 0.00 | 52 | |
| 20260504010004 | 54 | 227 | 0.0 | 0.0 | 0.00 | 0.00 | 0.00 | 51 | |
| 20260504005800 | 55 | 228 | 0.0 | 0.0 | 0.00 | 0.00 | 0.00 | 51 | |
| 20260504005600 | 55 | 228 | 0.0 | 0.0 | 0.00 | 0.00 | 0.00 | 51 | |
| 20260504005400 | 55 | 228 | 0.0 | 0.0 | 0.00 | 0.00 | 0.00 | 51 | |
| 20260504005200 | 55 | 228 | 0.0 | 0.0 | 0.00 | 0.00 | 0.00 | 50 | |
| 20260504005005 | 55 | 228 | 0.0 | 0.0 | 0.00 | 0.00 | 0.00 | 49 | |
| 20260504004759 | 55 | 227 | 0.0 | 0.0 | 0.00 | 0.00 | 0.00 | 48 | |
| 20260504004601 | 56 | 228 | 0.0 | 0.0 | 0.00 | 0.00 | 0.00 | 49 | |
| 20260504004400 | 56 | 228 | 0.0 | 0.0 | 0.00 | 0.00 | 0.00 | 48 | |
| 20260504004159 | 56 | 228 | 0.0 | 0.0 | 0.00 | 0.00 | 0.00 | 48 | |
| 20260504004004 | 56 | 227 | 0.0 | 0.0 | 0.00 | 0.00 | 0.00 | 47 | |
| 20260504003800 | 56 | 228 | 0.0 | 0.0 | 0.00 | 0.00 | 0.00 | 46 | |
| 20260504003600 | 56 | 227 | 0.0 | 0.0 | 0.00 | 0.00 | 0.00 | 46 | |
| 20260504003005 | 57 | 228 | 0.0 | 0.9 | 0.00 | 0.00 | 0.00 | 45 | |
| 20260504002801 | 57 | 228 | 0.0 | 0.9 | 0.00 | 0.00 | 0.00 | 46 | |
| 20260504002600 | 57 | 227 | 0.0 | 0.9 | 0.00 | 0.00 | 0.00 | 46 | |
| 20260504002401 | 57 | 228 | 0.0 | 0.9 | 0.00 | 0.00 | 0.00 | 45 | |
| 20260504002201 | 57 | 228 | 0.0 | 0.9 | 0.00 | 0.00 | 0.00 | 44 | |
| 20260504002000 | 58 | 228 | 0.0 | 0.9 | 0.00 | 0.00 | 0.00 | 44 | |
| 20260504001800 | 58 | 228 | 0.0 | 0.9 | 0.00 | 0.00 | 0.00 | 44 | |
| 20260504001601 | 58 | 228 | 0.0 | 0.9 | 0.00 | 0.00 | 0.00 | 43 | |
| 20260504001400 | 58 | 228 | 0.0 | 0.9 | 0.00 | 0.00 | 0.00 | 42 | |
| 20260504001200 | 58 | 228 | 0.0 | 0.9 | 0.00 | 0.00 | 0.00 | 42 | |
| 20260504001005 | 58 | 228 | 0.0 | 1.7 | 0.00 | 0.00 | 0.00 | 41 | |
| 20260504000600 | 59 | 228 | 0.0 | 2.6 | 0.00 | 0.00 | 0.00 | 42 | |
| 20260504000401 | 59 | 228 | 0.0 | 2.6 | 0.00 | 0.00 | 0.00 | 41 | |
| 20260504000003 | 59 | 227 | 0.9 | 2.6 | 0.00 | 0.00 | 0.00 | 40 | |
| 20260503235758 | 59 | 228 | 0.0 | 1.7 | 0.00 | 0.00 | 0.00 | 40 | |
| 20260503235600 | 59 | 228 | 0.9 | 1.7 | 0.00 | 0.00 | 0.00 | 39 | |
| 20260503235401 | 59 | 228 | 0.0 | 1.7 | 0.00 | 0.00 | 0.00 | 39 | |
| 20260503235159 | 60 | 228 | 0.9 | 1.7 | 0.00 | 0.00 | 0.00 | 39 | |
| 20260503235004 | 60 | 228 | 0.9 | 3.5 | 0.00 | 0.00 | 0.00 | 39 | |
| 20260503234759 | 60 | 228 | 0.9 | 3.5 | 0.00 | 0.00 | 0.00 | 39 | |
| 20260503234559 | 60 | 228 | 0.9 | 3.5 | 0.00 | 0.00 | 0.00 | 38 | |
| 20260503234359 | 60 | 228 | 0.0 | 3.5 | 0.00 | 0.00 | 0.00 | 37 | |
| 20260503234200 | 60 | 228 | 1.7 | 3.5 | 0.00 | 0.00 | 0.00 | 37 | |
| 20260503234003 | 60 | 224 | 0.9 | 4.3 | 0.00 | 0.00 | 0.00 | 36 | |
| 20260503233400 | 60 | 222 | 1.7 | 4.3 | 0.00 | 0.00 | 0.00 | 36 | |
| 20260503233200 | 61 | 233 | 0.9 | 3.5 | 0.00 | 0.00 | 0.00 | 36 | |
| 20260503233006 | 61 | 237 | 0.9 | 3.5 | 0.00 | 0.00 | 0.00 | 35 | |
| 20260503232800 | 61 | 237 | 0.9 | 3.5 | 0.00 | 0.00 | 0.00 | 35 | |
| 20260503232600 | 61 | 237 | 0.9 | 3.5 | 0.00 | 0.00 | 0.00 | 35 | |
| 20260503232401 | 61 | 237 | 1.7 | 5.2 | 0.00 | 0.00 | 0.00 | 36 | |
| 20260503232200 | 61 | 238 | 1.7 | 5.2 | 0.00 | 0.00 | 0.00 | 35 | |
| 20260503231800 | 61 | 241 | 1.7 | 5.2 | 0.00 | 0.00 | 0.00 | 35 | |
| 20260503231601 | 61 | 241 | 1.7 | 5.2 | 0.00 | 0.00 | 0.00 | 35 | |
| 20260503231359 | 61 | 228 | 0.0 | 4.3 | 0.00 | 0.00 | 0.00 | 34 | |
| 20260503231200 | 61 | 227 | 0.9 | 4.3 | 0.00 | 0.00 | 0.00 | 35 | |
| 20260503231003 | 61 | 228 | 1.7 | 4.3 | 0.00 | 0.00 | 0.00 | 34 | |
| 20260503230601 | 62 | 253 | 0.9 | 3.5 | 0.00 | 0.00 | 0.00 | 35 | |
| 20260503230400 | 62 | 304 | 0.9 | 4.3 | 0.00 | 0.00 | 0.00 | 33 | |
| 20260503230005 | 62 | 359 | 1.7 | 4.3 | 0.00 | 0.00 | 0.00 | 34 | |
| 20260503225759 | 62 | 29 | 1.7 | 4.3 | 0.00 | 0.00 | 0.00 | 33 | |
| 20260503225600 | 62 | 354 | 2.6 | 4.3 | 0.00 | 0.00 | 0.00 | 33 | |
| 20260503225359 | 62 | 247 | 1.7 | 4.3 | 0.00 | 0.00 | 0.00 | 32 | |
| 20260503225200 | 62 | 290 | 0.9 | 4.3 | 0.00 | 0.00 | 0.00 | 34 | |
| 20260503225004 | 62 | 246 | 1.7 | 4.3 | 0.00 | 0.00 | 0.00 | 37 | |
| 20260503224801 | 62 | 324 | 1.7 | 4.3 | 0.00 | 0.00 | 0.00 | 34 | |
| 20260503224600 | 62 | 322 | 1.7 | 6.1 | 0.00 | 0.00 | 0.00 | 34 | |
| 20260503224400 | 62 | 329 | 1.7 | 6.1 | 0.00 | 0.00 | 0.00 | 34 | |
| 20260503224201 | 62 | 323 | 0.9 | 6.1 | 0.00 | 0.00 | 0.00 | 33 | |
| 20260503224005 | 62 | 354 | 2.6 | 6.1 | 0.00 | 0.00 | 0.00 | 33 | |
| 20260503223759 | 62 | 320 | 2.6 | 6.1 | 0.00 | 0.00 | 0.00 | 32 | |
| 20260503223600 | 62 | 10 | 2.6 | 6.1 | 0.00 | 0.00 | 0.00 | 33 | |
| 20260503223359 | 62 | 345 | 2.6 | 7.0 | 0.00 | 0.00 | 0.00 | 32 | |
| 20260503223201 | 62 | 8 | 3.5 | 7.8 | 0.00 | 0.00 | 0.00 | 32 | |
| 20260503223005 | 62 | 354 | 2.6 | 8.7 | 0.00 | 0.00 | 0.00 | 34 | |
| 20260503222800 | 62 | 340 | 0.9 | 8.7 | 0.00 | 0.00 | 0.00 | 34 | |
| 20260503222600 | 62 | 328 | 3.5 | 8.7 | 0.00 | 0.00 | 0.00 | 33 | |
| 20260503222400 | 63 | 263 | 3.5 | 8.7 | 0.00 | 0.00 | 0.00 | 34 | |
| 20260503222201 | 63 | 241 | 4.3 | 8.7 | 0.00 | 0.00 | 0.00 | 34 | |
| 20260503222005 | 63 | 228 | 2.6 | 7.0 | 0.00 | 0.00 | 0.00 | 33 | |
| 20260503221800 | 63 | 327 | 2.6 | 7.0 | 0.00 | 0.00 | 0.00 | 33 | |
| 20260503221400 | 63 | 318 | 0.9 | 8.7 | 0.00 | 0.00 | 0.00 | 34 | |
| 20260503221159 | 63 | 314 | 0.9 | 8.7 | 0.00 | 0.00 | 0.00 | 33 | |
| 20260503221004 | 63 | 313 | 1.7 | 8.7 | 0.00 | 0.00 | 0.00 | 33 | |
| 20260503220800 | 63 | 4 | 3.5 | 8.7 | 0.00 | 0.00 | 0.00 | 32 | |
| 20260503220600 | 63 | 345 | 4.3 | 8.7 | 0.00 | 0.00 | 0.00 | 33 | |
| 20260503220359 | 63 | 350 | 3.5 | 8.7 | 0.00 | 0.00 | 0.00 | 33 | |
| 20260503220159 | 63 | 297 | 1.7 | 9.6 | 0.00 | 0.00 | 0.00 | 33 | |
| 20260503220005 | 63 | 335 | 0.9 | 9.6 | 0.00 | 0.00 | 0.00 | 31 | |
| 20260503215800 | 63 | 280 | 3.5 | 9.6 | 0.00 | 0.00 | 0.00 | 30 | |
| 20260503215600 | 63 | 290 | 3.5 | 9.6 | 0.00 | 0.00 | 0.00 | 34 | |
| 20260503215400 | 63 | 298 | 1.7 | 7.8 | 0.00 | 0.00 | 0.00 | 35 | |
| 20260503215200 | 63 | 314 | 3.5 | 7.8 | 0.00 | 0.00 | 0.00 | 34 | |
| 20260503215004 | 63 | 243 | 1.7 | 7.0 | 0.00 | 0.00 | 0.00 | 35 | |
| 20260503214800 | 63 | 230 | 2.6 | 7.0 | 0.00 | 0.00 | 0.00 | 35 | |
| 20260503214601 | 63 | 25 | 2.6 | 5.2 | 0.00 | 0.00 | 0.00 | 32 | |
| 20260503214401 | 63 | 332 | 1.7 | 5.2 | 0.00 | 0.00 | 0.00 | 32 | |
| 20260503214005 | 63 | 216 | 2.6 | 11.3 | 0.00 | 0.00 | 0.00 | 33 | |
| 20260503213758 | 63 | 204 | 0.9 | 11.3 | 0.00 | 0.00 | 0.00 | 33 | |
| 20260503213559 | 63 | 233 | 1.7 | 11.3 | 0.00 | 0.00 | 0.00 | 34 | |
| 20260503213400 | 63 | 247 | 6.1 | 11.3 | 0.00 | 0.00 | 0.00 | 31 | |
| 20260503213201 | 63 | 243 | 3.5 | 9.6 | 0.00 | 0.00 | 0.00 | 34 | |
| 20260503213005 | 63 | 256 | 2.6 | 7.8 | 0.00 | 0.00 | 0.00 | 32 | |
| 20260503212800 | 63 | 297 | 2.6 | 7.8 | 0.00 | 0.00 | 0.00 | 31 | |
| 20260503212600 | 63 | 242 | 2.6 | 7.8 | 0.00 | 0.00 | 0.00 | 35 | |
| 20260503212400 | 63 | 234 | 3.5 | 7.8 | 0.00 | 0.00 | 0.00 | 35 | |
| 20260503212159 | 63 | 189 | 0.9 | 7.8 | 0.00 | 0.00 | 0.00 | 35 | |
| 20260503211759 | 63 | 342 | 3.5 | 10.4 | 0.00 | 0.00 | 0.00 | 33 | |
| 20260503211400 | 63 | 354 | 3.5 | 10.4 | 0.00 | 0.00 | 0.00 | 33 | |
| 20260503211201 | 63 | 321 | 3.5 | 10.4 | 0.00 | 0.00 | 0.00 | 32 | |
| 20260503211004 | 63 | 266 | 3.5 | 10.4 | 0.00 | 0.00 | 0.00 | 32 | |
| 20260503210400 | 63 | 253 | 5.2 | 10.4 | 0.00 | 0.00 | 0.00 | 35 | |
| 20260503210200 | 63 | 229 | 4.3 | 9.6 | 0.00 | 0.00 | 0.00 | 35 | |
| 20260503205802 | 63 | 249 | 2.6 | 9.6 | 0.00 | 0.00 | 0.00 | 36 | |
| 20260503205559 | 63 | 251 | 4.3 | 9.6 | 0.00 | 0.00 | 0.00 | 35 | |
| 20260503205159 | 62 | 354 | 1.7 | 6.1 | 0.00 | 0.00 | 0.00 | 35 | |
| 20260503205005 | 63 | 320 | 2.6 | 7.8 | 0.00 | 0.00 | 0.00 | 34 | |
| 20260503204800 | 63 | 354 | 3.5 | 7.8 | 0.00 | 0.00 | 0.00 | 34 | |
| 20260503204400 | 63 | 8 | 4.3 | 7.8 | 0.00 | 0.00 | 0.00 | 33 | |
| 20260503204200 | 63 | 311 | 5.2 | 7.8 | 0.00 | 0.00 | 0.00 | 33 | |
| 20260503204004 | 63 | 347 | 3.5 | 7.0 | 0.00 | 0.00 | 0.00 | 34 | |
| 20260503203601 | 63 | 256 | 3.5 | 7.0 | 0.00 | 0.00 | 0.00 | 36 | |
| 20260503203400 | 63 | 293 | 1.7 | 7.0 | 0.00 | 0.00 | 0.00 | 35 | |
| 20260503203006 | 62 | 24 | 2.6 | 7.8 | 0.00 | 0.00 | 0.00 | 34 | |
| 20260503202800 | 62 | 185 | 3.5 | 8.7 | 0.00 | 0.00 | 0.00 | 36 | |
| 20260503202559 | 62 | 272 | 1.7 | 8.7 | 0.00 | 0.00 | 0.00 | 34 | |
| 20260503202159 | 62 | 291 | 4.3 | 8.7 | 0.00 | 0.00 | 0.00 | 34 | |
| 20260503202003 | 62 | 33 | 2.6 | 7.8 | 0.00 | 0.00 | 0.00 | 36 | |
| 20260503201800 | 62 | 315 | 3.5 | 7.8 | 0.00 | 0.00 | 0.00 | 36 | |
| 20260503201600 | 62 | 333 | 4.3 | 7.8 | 0.00 | 0.00 | 0.00 | 37 | |
| 20260503201401 | 62 | 202 | 1.7 | 7.8 | 0.00 | 0.00 | 0.00 | 39 | |
| 20260503201200 | 62 | 189 | 0.9 | 7.8 | 0.00 | 0.00 | 0.00 | 36 | |
| 20260503201004 | 62 | 296 | 2.6 | 7.8 | 0.00 | 0.00 | 0.00 | 37 | |
| 20260503200800 | 62 | 292 | 2.6 | 7.8 | 0.00 | 0.00 | 0.00 | 36 | |
| 20260503200559 | 62 | 274 | 2.6 | 7.8 | 0.00 | 0.00 | 0.00 | 38 | |
| 20260503200400 | 62 | 354 | 2.6 | 7.8 | 0.00 | 0.00 | 0.00 | 36 | |
| 20260503200200 | 62 | 354 | 5.2 | 7.8 | 0.00 | 0.00 | 0.00 | 37 | |
| 20260503200006 | 62 | 341 | 2.6 | 6.1 | 0.00 | 0.00 | 0.00 | 36 | |
| 20260503195801 | 61 | 318 | 2.6 | 6.1 | 0.00 | 0.00 | 0.00 | 37 | |
| 20260503195600 | 62 | 313 | 2.6 | 9.6 | 0.00 | 0.00 | 0.00 | 35 | |
| 20260503195400 | 62 | 345 | 2.6 | 9.6 | 0.00 | 0.00 | 0.00 | 35 | |
| 20260503195200 | 62 | 339 | 3.5 | 9.6 | 0.00 | 0.00 | 0.00 | 35 | |
| 20260503195004 | 62 | 293 | 3.5 | 9.6 | 0.00 | 0.00 | 0.00 | 36 | |
| 20260503194800 | 62 | 257 | 5.2 | 9.6 | 0.00 | 0.00 | 0.00 | 36 | |
| 20260503194600 | 62 | 297 | 4.3 | 9.6 | 0.00 | 0.00 | 0.00 | 35 | |
| 20260503194359 | 62 | 343 | 3.5 | 9.6 | 0.00 | 0.00 | 0.00 | 34 | |
| 20260503194201 | 62 | 354 | 2.6 | 9.6 | 0.00 | 0.00 | 0.00 | 36 | |
| 20260503194004 | 62 | 265 | 3.5 | 9.6 | 0.00 | 0.00 | 0.00 | 35 | |
| 20260503193800 | 62 | 212 | 4.3 | 8.7 | 0.00 | 0.00 | 0.00 | 35 | |
| 20260503193600 | 62 | 336 | 4.3 | 8.7 | 0.00 | 0.00 | 0.00 | 36 | |
| 20260503193359 | 62 | 238 | 3.5 | 8.7 | 0.00 | 0.00 | 0.00 | 35 | |
| 20260503193200 | 62 | 255 | 4.3 | 9.6 | 0.00 | 0.00 | 0.00 | 37 | |
| 20260503193005 | 62 | 337 | 3.5 | 8.7 | 0.00 | 0.00 | 0.00 | 35 | |
| 20260503192759 | 62 | 330 | 3.5 | 9.6 | 0.00 | 0.00 | 0.00 | 36 | |
| 20260503192600 | 62 | 332 | 2.6 | 9.6 | 0.00 | 0.00 | 0.00 | 36 | |
| 20260503192359 | 62 | 330 | 2.6 | 13.9 | 0.00 | 0.00 | 0.00 | 36 | |
| 20260503192200 | 62 | 348 | 5.2 | 13.9 | 0.00 | 0.00 | 0.00 | 36 | |
| 20260503192005 | 62 | 300 | 3.5 | 13.9 | 0.00 | 0.00 | 0.00 | 34 | |
| 20260503191759 | 62 | 338 | 5.2 | 13.9 | 0.00 | 0.00 | 0.00 | 36 | |
| 20260503191400 | 62 | 258 | 3.5 | 8.7 | 0.00 | 0.00 | 0.00 | 37 | |
| 20260503191200 | 62 | 245 | 3.5 | 8.7 | 0.00 | 0.00 | 0.00 | 36 | |
| 20260503191004 | 62 | 179 | 3.5 | 9.6 | 0.00 | 0.00 | 0.00 | 38 | |
| 20260503190801 | 62 | 4 | 4.3 | 10.4 | 0.00 | 0.00 | 0.00 | 38 | |
| 20260503190401 | 61 | 191 | 2.6 | 10.4 | 0.00 | 0.00 | 0.00 | 39 | |
| 20260503190006 | 61 | 241 | 4.3 | 13.9 | 0.00 | 0.00 | 0.00 | 36 | |
| 20260503185800 | 61 | 4 | 3.5 | 13.9 | 0.00 | 0.00 | 0.00 | 38 | |
| 20260503185559 | 61 | 345 | 4.3 | 13.9 | 0.00 | 0.00 | 0.00 | 36 | |
| 20260503185400 | 61 | 14 | 5.2 | 13.9 | 0.00 | 0.00 | 0.00 | 36 | |
| 20260503185201 | 61 | 4 | 2.6 | 10.4 | 0.00 | 0.00 | 0.00 | 37 | |
| 20260503184600 | 61 | 242 | 3.5 | 12.2 | 0.00 | 0.00 | 0.00 | 40 | |
| 20260503184005 | 60 | 239 | 3.5 | 13.0 | 0.00 | 0.00 | 0.00 | 38 | |
| 20260503183800 | 60 | 255 | 4.3 | 13.0 | 0.00 | 0.00 | 0.00 | 40 | |
| 20260503183600 | 60 | 41 | 4.3 | 13.0 | 0.00 | 0.00 | 0.00 | 38 | |
| 20260503183400 | 60 | 359 | 7.0 | 13.0 | 0.00 | 0.00 | 0.00 | 36 | |
| 20260503183201 | 60 | 23 | 5.2 | 12.2 | 0.00 | 0.00 | 0.00 | 35 | |
| 20260503183006 | 60 | 4 | 4.3 | 12.2 | 0.00 | 0.00 | 0.00 | 35 | |
| 20260503182400 | 60 | 297 | 5.2 | 12.2 | 0.00 | 0.00 | 0.00 | 37 | |
| 20260503182201 | 60 | 218 | 2.6 | 8.7 | 0.00 | 0.00 | 0.00 | 36 | |
| 20260503182006 | 60 | 345 | 4.3 | 8.7 | 0.00 | 0.00 | 0.00 | 36 | |
| 20260503181759 | 60 | 8 | 3.5 | 8.7 | 0.00 | 0.00 | 0.00 | 36 | |
| 20260503181359 | 61 | 339 | 3.5 | 7.8 | 0.00 | 0.00 | 0.00 | 35 | |
| 20260503181201 | 61 | 228 | 3.5 | 7.0 | 0.00 | 0.00 | 0.00 | 38 | |
| 20260503181005 | 61 | 305 | 3.5 | 7.8 | 0.00 | 0.00 | 0.00 | 36 | |
| 20260503180800 | 61 | 310 | 2.6 | 14.8 | 0.00 | 0.00 | 0.00 | 39 | |
| 20260503180601 | 61 | 313 | 1.7 | 14.8 | 0.00 | 0.00 | 0.00 | 37 | |
| 20260503180159 | 60 | 274 | 4.3 | 14.8 | 0.00 | 0.00 | 0.00 | 38 | |
| 20260503180005 | 60 | 235 | 4.3 | 14.8 | 0.00 | 0.00 | 0.00 | 38 | |
| 20260503175159 | 59 | 226 | 5.2 | 11.3 | 0.00 | 0.00 | 0.00 | 41 | |
| 20260503175004 | 59 | 166 | 3.5 | 11.3 | 0.00 | 0.00 | 0.00 | 39 | |
| 20260503174759 | 59 | 315 | 3.5 | 11.3 | 0.00 | 0.00 | 0.00 | 40 | |
| 20260503174400 | 59 | 328 | 6.1 | 11.3 | 0.00 | 0.00 | 0.00 | 37 | |
| 20260503174200 | 59 | 325 | 7.0 | 11.3 | 0.00 | 0.00 | 0.00 | 36 | |
| 20260503174005 | 59 | 359 | 6.1 | 9.6 | 0.00 | 0.00 | 0.00 | 35 | |
| 20260503173800 | 59 | 25 | 4.3 | 10.4 | 0.00 | 0.00 | 0.00 | 36 | |
| 20260503173601 | 60 | 346 | 6.1 | 11.3 | 0.00 | 0.00 | 0.00 | 35 | |
| 20260503173401 | 60 | 359 | 3.5 | 11.3 | 0.00 | 0.00 | 0.00 | 35 | |
| 20260503173200 | 60 | 35 | 3.5 | 11.3 | 0.00 | 0.00 | 0.00 | 36 | |
| 20260503173005 | 59 | 305 | 3.5 | 11.3 | 0.00 | 0.00 | 0.00 | 38 | |
| 20260503172800 | 59 | 349 | 5.2 | 11.3 | 0.00 | 0.00 | 0.00 | 37 | |
| 20260503172559 | 59 | 243 | 3.5 | 7.0 | 0.00 | 0.00 | 0.00 | 38 | |
| 20260503172200 | 59 | 259 | 4.3 | 14.8 | 0.00 | 0.00 | 0.00 | 36 | |
| 20260503172004 | 59 | 349 | 3.5 | 14.8 | 0.00 | 0.00 | 0.00 | 37 | |
| 20260503171759 | 59 | 329 | 6.1 | 14.8 | 0.00 | 0.00 | 0.00 | 37 | |
| 20260503171600 | 59 | 343 | 5.2 | 14.8 | 0.00 | 0.00 | 0.00 | 38 | |
| 20260503171401 | 58 | 347 | 3.5 | 14.8 | 0.00 | 0.00 | 0.00 | 38 | |
| 20260503171159 | 58 | 4 | 2.6 | 9.6 | 0.00 | 0.00 | 0.00 | 39 | |
| 20260503171004 | 58 | 248 | 2.6 | 12.2 | 0.00 | 0.00 | 0.00 | 42 | |
| 20260503170801 | 58 | 20 | 4.3 | 13.0 | 0.00 | 0.00 | 0.00 | 39 | |
| 20260503170400 | 58 | 295 | 3.5 | 13.0 | 0.00 | 0.00 | 0.00 | 40 | |
| 20260503170159 | 57 | 309 | 5.2 | 13.0 | 0.00 | 0.00 | 0.00 | 40 | |
| 20260503160200 | 56 | 283 | 3.5 | 8.7 | 0.00 | 0.00 | 0.00 | 41 | |
| 20260503151004 | 54 | 301 | 5.2 | 8.7 | 0.00 | 0.00 | 0.00 | 43 | |
| 20260503150759 | 54 | 52 | 4.3 | 8.7 | 0.00 | 0.00 | 0.00 | 42 | |
| 20260503150600 | 53 | 332 | 3.5 | 8.7 | 0.00 | 0.00 | 0.00 | 41 | |
| 20260503150359 | 53 | 304 | 3.5 | 8.7 | 0.00 | 0.00 | 0.00 | 43 | |
| 20260503150200 | 53 | 290 | 2.6 | 7.8 | 0.00 | 0.00 | 0.00 | 46 | |
| 20260503140201 | 50 | 296 | 4.3 | 13.9 | 0.00 | 0.00 | 0.00 | 49 |